TimeEDT,TemperatureF,Dew PointF,Humidity,Sea Level PressureIn,VisibilityMPH,Wind Direction,Wind SpeedMPH,Gust SpeedMPH,PrecipitationIn,Events,Conditions,WindDirDegrees,DateUTC
12:36 AM,77.0,69.8,78,29.82,10.0,WSW,12.7,-,N/A,Rain,Light Rain,250,2013-06-26 04:36:00
12:44 AM,77.0,68.0,74,29.82,10.0,West,13.8,26.5,N/A,Rain,Light Rain,270,2013-06-26 04:44:00
12:54 AM,77.0,68.0,74,29.83,10.0,West,12.7,21.9,N/A,,Mostly Cloudy,280,2013-06-26 04:54:00
12:58 AM,76.3,68.4,76,29.84,10.0,West,12.7,21.9,0.00,,Scattered Clouds,280,2013-06-26 04:58:00
1:58 AM,74.1,66.2,76,29.83,10.0,West,11.5,-,N/A,,Mostly Cloudy,270,2013-06-26 05:58:00
2:58 AM,72.5,64.9,77,29.84,10.0,West,10.4,-,N/A,,Overcast,280,2013-06-26 06:58:00
3:58 AM,71.8,64.2,77,29.84,10.0,West,8.1,-,N/A,,Clear,280,2013-06-26 07:58:00
4:58 AM,70.0,64.6,83,29.85,10.0,West,5.8,-,N/A,,Clear,260,2013-06-26 08:58:00
5:58 AM,69.8,64.0,82,29.86,10.0,West,2.3,-,N/A,,Clear,260,2013-06-26 09:58:00
6:58 AM,71.1,64.9,81,29.87,10.0,WSW,5.8,-,N/A,,Clear,240,2013-06-26 10:58:00
7:58 AM,73.8,65.8,76,29.87,10.0,WSW,5.8,-,N/A,,Clear,240,2013-06-26 11:58:00
8:58 AM,77.4,66.4,69,29.88,10.0,West,4.6,-,N/A,,Clear,270,2013-06-26 12:58:00
9:58 AM,81.0,66.6,61,29.87,10.0,West,6.9,-,N/A,,Clear,270,2013-06-26 13:58:00
10:58 AM,83.5,65.7,55,29.87,10.0,West,10.4,-,N/A,,Clear,280,2013-06-26 14:58:00
11:58 AM,85.1,66.2,53,29.86,10.0,Variable,6.9,-,N/A,,Scattered Clouds,0,2013-06-26 15:58:00
12:58 PM,87.3,68.2,53,29.86,10.0,WSW,10.4,-,N/A,,Scattered Clouds,240,2013-06-26 16:58:00
1:58 PM,88.5,67.5,50,29.85,10.0,Variable,4.6,-,N/A,,Scattered Clouds,0,2013-06-26 17:58:00
2:58 PM,89.4,67.8,49,29.83,10.0,SW,11.5,-,N/A,,Partly Cloudy,230,2013-06-26 18:58:00
3:58 PM,89.2,69.1,51,29.80,10.0,WSW,9.2,-,N/A,,Clear,240,2013-06-26 19:58:00
4:58 PM,88.0,70.9,57,29.79,10.0,SSW,5.8,-,N/A,,Partly Cloudy,210,2013-06-26 20:58:00
5:39 PM,86.0,71.6,62,29.77,10.0,South,6.9,-,N/A,Thunderstorm,Thunderstorm,190,2013-06-26 21:39:00
5:54 PM,86.0,71.6,62,29.77,10.0,SSW,8.1,-,N/A,Thunderstorm,Scattered Clouds,200,2013-06-26 21:54:00
5:58 PM,86.0,71.1,61,29.78,10.0,SSW,11.5,-,N/A,Thunderstorm,Scattered Clouds,210,2013-06-26 21:58:00
6:58 PM,84.0,72.5,68,29.77,10.0,SW,3.5,-,N/A,,Mostly Cloudy,230,2013-06-26 22:58:00
7:58 PM,81.5,71.1,70,29.80,10.0,West,4.6,-,N/A,,Mostly Cloudy,270,2013-06-26 23:58:00
8:24 PM,80.6,71.6,74,29.79,10.0,North,10.4,-,N/A,Rain,Light Rain,350,2013-06-27 00:24:00
8:58 PM,77.4,72.7,85,29.81,10.0,North,9.2,-,0.00,Rain,Light Rain,10,2013-06-27 00:58:00
9:14 PM,75.2,71.6,89,29.81,9.0,NE,6.9,-,N/A,Rain,Light Rain,50,2013-06-27 01:14:00
9:25 PM,75.2,71.6,89,29.80,7.0,ENE,8.1,-,N/A,Rain,Light Rain,70,2013-06-27 01:25:00
9:29 PM,73.4,69.8,88,29.79,7.0,NE,6.9,-,N/A,Rain,Light Rain,50,2013-06-27 01:29:00
9:34 PM,73.4,71.6,94,29.79,9.0,ENE,6.9,-,N/A,Rain-Thunderstorm,Light Rain,60,2013-06-27 01:34:00
9:36 PM,73.4,71.6,94,29.80,10.0,ENE,3.5,-,N/A,Rain-Thunderstorm,Light Thunderstorms and Rain,60,2013-06-27 01:36:00
9:49 PM,75.2,71.6,89,29.84,9.0,WSW,9.2,-,N/A,Rain-Thunderstorm,Light Thunderstorms and Rain,250,2013-06-27 01:49:00
9:53 PM,75.2,71.6,89,29.84,6.0,WSW,11.5,-,N/A,Rain-Thunderstorm,Light Thunderstorms and Rain,250,2013-06-27 01:53:00
9:54 PM,73.4,71.6,94,29.84,5.0,West,10.4,-,N/A,Rain-Thunderstorm,Light Thunderstorms and Rain,260,2013-06-27 01:54:00
9:55 PM,73.4,71.6,94,29.84,4.0,WSW,9.2,-,N/A,Rain-Thunderstorm,Light Thunderstorms and Rain,250,2013-06-27 01:55:00
9:57 PM,73.4,71.6,94,29.84,2.5,West,11.5,-,N/A,Rain-Thunderstorm,Heavy Thunderstorms and Rain,260,2013-06-27 01:57:00
9:58 PM,73.4,71.6,94,29.85,2.5,West,11.5,-,0.12,Rain-Thunderstorm,Heavy Thunderstorms and Rain,260,2013-06-27 01:58:00
9:59 PM,73.4,71.6,94,29.84,2.0,West,10.4,-,N/A,Rain-Thunderstorm,Heavy Thunderstorms and Rain,260,2013-06-27 01:59:00
10:00 PM,73.4,71.6,94,29.84,1.8,WSW,9.2,-,N/A,Rain-Thunderstorm,Heavy Thunderstorms and Rain,240,2013-06-27 02:00:00
10:01 PM,73.4,71.6,94,29.84,1.8,SSW,10.4,-,N/A,Rain-Thunderstorm,Heavy Thunderstorms and Rain,210,2013-06-27 02:01:00
10:02 PM,73.4,71.6,94,29.84,1.5,SSW,10.4,-,N/A,Rain-Thunderstorm,Heavy Thunderstorms and Rain,210,2013-06-27 02:02:00
10:03 PM,73.4,71.6,94,29.84,1.5,SSW,10.4,-,N/A,Rain-Thunderstorm,Heavy Thunderstorms and Rain,210,2013-06-27 02:03:00
10:06 PM,73.4,71.6,94,29.84,1.5,SSW,6.9,-,N/A,Rain-Thunderstorm,Heavy Thunderstorms and Rain,200,2013-06-27 02:06:00
10:08 PM,73.4,71.6,94,29.84,1.8,South,6.9,-,N/A,Rain-Thunderstorm,Heavy Thunderstorms and Rain,180,2013-06-27 02:08:00
10:09 PM,73.4,71.6,94,29.83,2.0,South,6.9,-,N/A,Rain-Thunderstorm,Heavy Thunderstorms and Rain,180,2013-06-27 02:09:00
10:13 PM,71.6,71.6,100,29.83,3.0,Variable,3.5,-,N/A,Rain-Thunderstorm,Thunderstorms and Rain,0,2013-06-27 02:13:00
10:16 PM,71.6,71.6,100,29.83,4.0,SSE,3.5,-,N/A,Rain-Thunderstorm,Thunderstorms and Rain,160,2013-06-27 02:16:00
10:21 PM,71.6,71.6,100,29.82,5.0,ESE,4.6,-,N/A,Rain-Thunderstorm,Light Thunderstorms and Rain,120,2013-06-27 02:21:00
10:26 PM,71.6,71.6,100,29.82,7.0,ESE,3.5,-,N/A,Rain-Thunderstorm,Light Thunderstorms and Rain,120,2013-06-27 02:26:00
10:36 PM,71.6,71.6,100,29.82,10.0,SE,5.8,-,N/A,Rain-Thunderstorm,Light Thunderstorms and Rain,140,2013-06-27 02:36:00
10:37 PM,71.6,71.6,100,29.82,10.0,SE,5.8,-,N/A,Rain,Light Rain,140,2013-06-27 02:37:00
10:48 PM,71.6,71.6,100,29.81,10.0,SE,5.8,-,N/A,,Mostly Cloudy,130,2013-06-27 02:48:00
10:58 PM,71.8,70.9,97,29.82,10.0,SE,5.8,-,0.22,,Mostly Cloudy,130,2013-06-27 02:58:00
11:22 PM,71.6,71.6,100,29.83,10.0,SW,10.4,-,N/A,Rain,Light Rain,220,2013-06-27 03:22:00
11:33 PM,71.6,69.8,94,29.83,8.0,SW,10.4,-,N/A,Rain,Light Rain,230,2013-06-27 03:33:00
11:36 PM,71.6,69.8,94,29.82,6.0,SW,10.4,-,N/A,Rain,Rain,230,2013-06-27 03:36:00
11:40 PM,71.6,71.6,100,29.82,5.0,WSW,8.1,-,N/A,Rain,Rain,240,2013-06-27 03:40:00
11:48 PM,71.6,71.6,100,29.81,5.0,West,5.8,-,N/A,Rain,Light Rain,260,2013-06-27 03:48:00
11:52 PM,71.6,71.6,100,29.81,7.0,West,3.5,-,N/A,Rain,Light Rain,280,2013-06-27 03:52:00
11:58 PM,72.1,70.9,96,29.82,9.0,WSW,2.3,-,0.03,Rain,Light Rain,240,2013-06-27 03:58:00